Time,TemperatureF,DewpointF,PressureIn,WindDirection,WindDirectionDegrees,WindSpeedMPH,WindSpeedGustMPH,Humidity,HourlyPrecipIn,Conditions,Clouds,dailyrainin,SoftwareType,DateUTC
2013-04-27 00:02:00,47.0,45.0,-100.00,SSW,200,7.0,9.0,90,0.00,,,-99.99,,2013-04-27 05:02:00,
2013-04-27 00:12:00,47.0,45.0,-100.00,SSW,200,7.0,9.0,91,0.00,,,-99.99,,2013-04-27 05:12:00,
2013-04-27 00:22:00,47.0,45.0,-100.00,SSW,200,7.0,10.0,91,0.00,,,-99.99,,2013-04-27 05:22:00,
2013-04-27 00:32:00,46.0,44.0,-100.00,SSW,210,4.0,7.0,91,0.00,,,-99.99,,2013-04-27 05:32:00,
2013-04-27 00:42:00,46.0,44.0,-100.00,SSW,210,4.0,7.0,91,0.00,,,-99.99,,2013-04-27 05:42:00,
2013-04-27 00:52:00,46.0,44.0,-100.00,West,265,4.0,5.0,92,0.00,,,-99.99,,2013-04-27 05:52:00,
2013-04-27 01:02:00,46.0,44.0,-100.00,West,265,4.0,5.0,92,0.00,,,-99.99,,2013-04-27 06:02:00,
2013-04-27 01:12:00,46.0,44.0,-100.00,NW,310,6.0,6.0,92,0.00,,,-99.99,,2013-04-27 06:12:00,
2013-04-27 01:22:00,46.0,44.0,-100.00,NW,305,5.0,6.0,93,0.00,,,-99.99,,2013-04-27 06:22:00,
2013-04-27 01:32:00,46.0,44.0,-100.00,West,265,8.0,10.0,93,0.00,,,-99.99,,2013-04-27 06:32:00,
2013-04-27 01:41:00,46.0,44.0,-100.00,West,265,8.0,10.0,93,0.00,,,-99.99,,2013-04-27 06:41:00,
2013-04-27 01:51:00,45.0,43.0,-100.00,SW,230,2.0,5.0,93,0.00,,,-99.99,,2013-04-27 06:51:00,
2013-04-27 02:01:00,45.0,43.0,-100.00,SW,230,2.0,5.0,93,0.00,,,-99.99,,2013-04-27 07:01:00,
2013-04-27 02:11:00,44.0,42.0,-100.00,SSW,205,4.0,6.0,93,0.00,,,-99.99,,2013-04-27 07:11:00,
2013-04-27 02:21:00,44.0,43.0,-100.00,SSW,210,2.0,5.0,93,0.00,,,-99.99,,2013-04-27 07:21:00,
2013-04-27 02:32:00,43.0,42.0,-100.00,South,190,5.0,6.0,93,0.00,,,-99.99,,2013-04-27 07:32:00,
2013-04-27 02:42:00,43.0,42.0,-100.00,South,190,5.0,6.0,93,0.00,,,-99.99,,2013-04-27 07:42:00,
2013-04-27 02:52:00,44.0,42.0,-100.00,South,185,5.0,6.0,93,0.00,,,-99.99,,2013-04-27 07:52:00,
2013-04-27 03:01:00,44.0,42.0,-100.00,South,185,5.0,6.0,93,0.00,,,-99.99,,2013-04-27 08:01:00,
2013-04-27 03:11:00,44.0,42.0,-100.00,South,170,2.0,6.0,93,0.00,,,-99.99,,2013-04-27 08:11:00,
2013-04-27 03:21:00,45.0,43.0,-100.00,SSW,205,3.0,6.0,93,0.00,,,-99.99,,2013-04-27 08:21:00,
2013-04-27 03:33:00,46.0,44.0,-100.00,SSW,195,4.0,7.0,93,0.00,,,-99.99,,2013-04-27 08:33:00,
2013-04-27 03:41:00,46.0,44.0,-100.00,SSW,195,4.0,7.0,93,0.00,,,-99.99,,2013-04-27 08:41:00,
2013-04-27 03:51:00,46.0,45.0,-100.00,SSW,210,4.0,6.0,93,0.00,,,-99.99,,2013-04-27 08:51:00,
2013-04-27 04:01:00,46.0,45.0,-100.00,SSW,210,4.0,6.0,93,0.00,,,-99.99,,2013-04-27 09:01:00,
2013-04-27 04:11:00,47.0,45.0,-100.00,SSW,210,4.0,6.0,93,0.00,,,-99.99,,2013-04-27 09:11:00,
2013-04-27 04:21:00,47.0,45.0,-100.00,SSW,200,4.0,7.0,93,0.00,,,-99.99,,2013-04-27 09:21:00,
2013-04-27 04:33:00,47.0,46.0,-100.00,South,190,6.0,7.0,93,0.00,,,-99.99,,2013-04-27 09:33:00,
2013-04-27 04:42:00,47.0,46.0,-100.00,South,190,6.0,7.0,93,0.00,,,-99.99,,2013-04-27 09:42:00,
2013-04-27 04:53:00,48.0,46.0,-100.00,SW,220,6.0,9.0,93,0.00,,,-99.99,,2013-04-27 09:53:00,
2013-04-27 05:02:00,48.0,46.0,-100.00,SW,220,6.0,9.0,93,0.00,,,-99.99,,2013-04-27 10:02:00,
2013-04-27 05:12:00,48.0,46.0,-100.00,SW,220,4.0,9.0,93,0.00,,,-99.99,,2013-04-27 10:12:00,
2013-04-27 05:22:00,48.0,46.0,-100.00,SW,230,4.0,7.0,93,0.00,,,-99.99,,2013-04-27 10:22:00,
2013-04-27 05:32:00,48.0,46.0,-100.00,SSW,205,6.0,9.0,93,0.00,,,-99.99,,2013-04-27 10:32:00,
2013-04-27 05:42:00,48.0,46.0,-100.00,SSW,205,6.0,9.0,93,0.00,,,-99.99,,2013-04-27 10:42:00,
2013-04-27 05:52:00,48.0,46.0,-100.00,SSW,195,7.0,9.0,93,0.00,,,-99.99,,2013-04-27 10:52:00,
2013-04-27 06:02:00,48.0,46.0,-100.00,SSW,195,7.0,9.0,93,0.00,,,-99.99,,2013-04-27 11:02:00,
2013-04-27 06:11:00,48.0,46.0,-100.00,SSW,195,6.0,9.0,93,0.00,,,-99.99,,2013-04-27 11:11:00,
2013-04-27 06:22:00,48.0,46.0,-100.00,SSW,195,6.0,9.0,93,0.00,,,-99.99,,2013-04-27 11:22:00,
2013-04-27 06:32:00,48.0,46.0,-100.00,South,185,5.0,9.0,93,0.00,,,-99.99,,2013-04-27 11:32:00,
2013-04-27 06:41:00,48.0,46.0,-100.00,South,185,5.0,9.0,93,0.00,,,-99.99,,2013-04-27 11:41:00,
2013-04-27 06:52:00,48.0,46.0,-100.00,South,180,5.0,6.0,93,0.00,,,-99.99,,2013-04-27 11:52:00,
2013-04-27 07:01:00,48.0,46.0,-100.00,South,180,5.0,6.0,93,0.00,,,-99.99,,2013-04-27 12:01:00,
2013-04-27 07:11:00,48.0,46.0,-100.00,South,185,5.0,6.0,93,0.00,,,-99.99,,2013-04-27 12:11:00,
2013-04-27 07:21:00,48.0,46.0,-100.00,South,180,5.0,6.0,93,0.00,,,-99.99,,2013-04-27 12:21:00,
2013-04-27 07:32:00,48.0,46.0,-100.00,South,180,8.0,10.0,93,0.00,,,-99.99,,2013-04-27 12:32:00,
2013-04-27 07:42:00,48.0,46.0,-100.00,South,180,8.0,10.0,93,0.00,,,-99.99,,2013-04-27 12:42:00,
2013-04-27 07:52:00,48.0,47.0,-100.00,South,180,6.0,7.0,93,0.00,,,-99.99,,2013-04-27 12:52:00,
2013-04-27 08:02:00,48.0,47.0,-100.00,South,180,6.0,7.0,93,0.00,,,-99.99,,2013-04-27 13:02:00,
2013-04-27 08:11:00,49.0,47.0,-100.00,South,170,6.0,7.0,93,0.00,,,-99.99,,2013-04-27 13:11:00,
2013-04-27 08:21:00,49.0,47.0,-100.00,South,180,6.0,7.0,93,0.00,,,-99.99,,2013-04-27 13:21:00,
2013-04-27 08:32:00,49.0,47.0,-100.00,South,180,6.0,9.0,93,0.00,,,-99.99,,2013-04-27 13:32:00,
2013-04-27 08:41:00,49.0,47.0,-100.00,South,180,6.0,9.0,93,0.00,,,-99.99,,2013-04-27 13:41:00,
2013-04-27 08:52:00,49.0,47.0,-100.00,South,185,7.0,8.0,93,0.00,,,-99.99,,2013-04-27 13:52:00,
2013-04-27 09:02:00,49.0,47.0,-100.00,South,185,7.0,8.0,93,0.00,,,-99.99,,2013-04-27 14:02:00,
2013-04-27 09:11:00,50.0,48.0,-100.00,South,190,2.0,9.0,93,0.00,,,-99.99,,2013-04-27 14:11:00,
2013-04-27 09:21:00,50.0,48.0,-100.00,SSW,205,6.0,7.0,93,0.00,,,-99.99,,2013-04-27 14:21:00,
2013-04-27 09:31:00,51.0,49.0,-100.00,South,185,3.0,7.0,92,0.00,,,-99.99,,2013-04-27 14:31:00,
2013-04-27 09:41:00,51.0,49.0,-100.00,South,185,3.0,7.0,92,0.00,,,-99.99,,2013-04-27 14:41:00,
2013-04-27 09:52:00,51.0,49.0,-100.00,SW,220,4.0,11.0,91,0.00,,,-99.99,,2013-04-27 14:52:00,
2013-04-27 10:01:00,51.0,49.0,-100.00,SW,220,4.0,11.0,91,0.00,,,-99.99,,2013-04-27 15:01:00,
2013-04-27 10:11:00,51.0,48.0,-100.00,SSE,165,6.0,9.0,90,0.00,,,-99.99,,2013-04-27 15:11:00,
2013-04-27 10:21:00,52.0,49.0,-100.00,SSW,205,4.0,8.0,88,0.00,,,-99.99,,2013-04-27 15:21:00,
2013-04-27 10:33:00,51.0,47.0,-100.00,SSE,160,7.0,11.0,85,0.00,,,-99.99,,2013-04-27 15:33:00,
2013-04-27 10:42:00,51.0,47.0,-100.00,SSE,160,7.0,11.0,85,0.00,,,-99.99,,2013-04-27 15:42:00,
2013-04-27 10:52:00,53.0,47.0,-100.00,SSW,200,6.0,11.0,81,0.00,,,-99.99,,2013-04-27 15:52:00,
2013-04-27 11:03:00,53.0,47.0,-100.00,SSW,200,6.0,11.0,81,0.00,,,-99.99,,2013-04-27 16:03:00,
2013-04-27 11:13:00,54.0,48.0,-100.00,South,190,6.0,10.0,80,0.00,,,-99.99,,2013-04-27 16:13:00,
2013-04-27 11:22:00,54.0,48.0,-100.00,SSW,195,7.0,9.0,78,0.00,,,-99.99,,2013-04-27 16:22:00,
2013-04-27 11:32:00,57.0,48.0,-100.00,South,185,9.0,12.0,70,0.00,,,-99.99,,2013-04-27 16:32:00,
2013-04-27 11:42:00,57.0,48.0,-100.00,South,185,9.0,12.0,70,0.00,,,-99.99,,2013-04-27 16:42:00,
2013-04-27 11:52:00,58.0,47.0,-100.00,SW,220,7.0,12.0,66,0.00,,,-99.99,,2013-04-27 16:52:00,
2013-04-27 12:02:00,58.0,47.0,-100.00,SW,220,7.0,12.0,66,0.00,,,-99.99,,2013-04-27 17:02:00,
2013-04-27 12:11:00,60.0,48.0,-100.00,South,185,9.0,12.0,64,0.00,,,-99.99,,2013-04-27 17:11:00,
2013-04-27 12:22:00,60.0,47.0,-100.00,SW,230,8.0,12.0,63,0.00,,,-99.99,,2013-04-27 17:22:00,
2013-04-27 12:32:00,60.0,47.0,-100.00,South,190,10.0,15.0,61,0.00,,,-99.99,,2013-04-27 17:32:00,
2013-04-27 12:42:00,60.0,47.0,-100.00,South,190,10.0,15.0,61,0.00,,,-99.99,,2013-04-27 17:42:00,
2013-04-27 12:52:00,62.0,48.0,-100.00,SW,225,9.0,12.0,60,0.00,,,-99.99,,2013-04-27 17:52:00,
2013-04-27 13:02:00,62.0,48.0,-100.00,SW,225,9.0,12.0,60,0.00,,,-99.99,,2013-04-27 18:02:00,
2013-04-27 13:11:00,62.0,47.0,-100.00,SW,225,7.0,11.0,57,0.00,,,-99.99,,2013-04-27 18:11:00,
2013-04-27 13:22:00,62.0,48.0,-100.00,SSW,200,6.0,7.0,59,0.00,,,-99.99,,2013-04-27 18:22:00,
2013-04-27 13:32:00,62.0,47.0,-100.00,SW,235,6.0,13.0,58,0.00,,,-99.99,,2013-04-27 18:32:00,
2013-04-27 13:41:00,62.0,47.0,-100.00,SW,235,6.0,13.0,58,0.00,,,-99.99,,2013-04-27 18:41:00,
2013-04-27 13:51:00,63.0,48.0,-100.00,WSW,245,7.0,12.0,57,0.00,,,-99.99,,2013-04-27 18:51:00,
2013-04-27 14:02:00,63.0,48.0,-100.00,WSW,245,7.0,12.0,57,0.00,,,-99.99,,2013-04-27 19:02:00,
2013-04-27 14:11:00,63.0,48.0,-100.00,West,275,6.0,11.0,56,0.00,,,-99.99,,2013-04-27 19:11:00,
2013-04-27 14:21:00,62.0,47.0,-100.00,SW,230,5.0,14.0,59,0.00,,,-99.99,,2013-04-27 19:21:00,
2013-04-27 14:32:00,63.0,48.0,-100.00,SW,235,2.0,12.0,57,0.00,,,-99.99,,2013-04-27 19:32:00,
2013-04-27 14:42:00,63.0,48.0,-100.00,SW,235,2.0,12.0,57,0.00,,,-99.99,,2013-04-27 19:42:00,
2013-04-27 14:52:00,64.0,48.0,-100.00,SE,135,4.0,12.0,55,0.00,,,-99.99,,2013-04-27 19:52:00,
2013-04-27 15:02:00,64.0,48.0,-100.00,SE,135,4.0,12.0,55,0.00,,,-99.99,,2013-04-27 20:02:00,
2013-04-27 15:11:00,65.0,48.0,-100.00,SW,230,7.0,11.0,55,0.00,,,-99.99,,2013-04-27 20:11:00,
2013-04-27 15:21:00,65.0,48.0,-100.00,South,190,6.0,10.0,54,0.00,,,-99.99,,2013-04-27 20:21:00,
2013-04-27 15:32:00,66.0,48.0,-100.00,West,280,4.0,9.0,52,0.00,,,-99.99,,2013-04-27 20:32:00,
2013-04-27 15:42:00,66.0,48.0,-100.00,West,280,4.0,9.0,52,0.00,,,-99.99,,2013-04-27 20:42:00,
2013-04-27 15:52:00,66.0,48.0,-100.00,WNW,300,6.0,8.0,53,0.00,,,-99.99,,2013-04-27 20:52:00,
2013-04-27 16:02:00,67.0,49.0,-100.00,SW,220,5.0,12.0,52,0.00,,,-99.99,,2013-04-27 21:02:00,
2013-04-27 16:11:00,67.0,48.0,-100.00,WSW,240,4.0,9.0,51,0.00,,,-99.99,,2013-04-27 21:11:00,
2013-04-27 16:21:00,66.0,48.0,-100.00,WNW,285,4.0,8.0,52,0.00,,,-99.99,,2013-04-27 21:21:00,
2013-04-27 16:33:00,68.0,49.0,-100.00,West,275,1.0,7.0,51,0.00,,,-99.99,,2013-04-27 21:33:00,
2013-04-27 16:42:00,68.0,49.0,-100.00,West,275,1.0,7.0,51,0.00,,,-99.99,,2013-04-27 21:42:00,
2013-04-27 16:53:00,68.0,48.0,-100.00,West,260,2.0,11.0,48,0.00,,,-99.99,,2013-04-27 21:53:00,
2013-04-27 17:02:00,68.0,48.0,-100.00,West,260,2.0,11.0,48,0.00,,,-99.99,,2013-04-27 22:02:00,
2013-04-27 17:12:00,68.0,48.0,-100.00,SW,225,2.0,12.0,48,0.00,,,-99.99,,2013-04-27 22:12:00,
2013-04-27 17:22:00,69.0,48.0,-100.00,SW,235,5.0,7.0,48,0.00,,,-99.99,,2013-04-27 22:22:00,
2013-04-27 17:32:00,69.0,48.0,-100.00,SW,225,7.0,9.0,47,0.00,,,-99.99,,2013-04-27 22:32:00,
2013-04-27 17:42:00,69.0,48.0,-100.00,SW,225,7.0,9.0,47,0.00,,,-99.99,,2013-04-27 22:42:00,
2013-04-27 17:52:00,68.0,47.0,-100.00,WSW,240,2.0,10.0,46,0.00,,,-99.99,,2013-04-27 22:52:00,
2013-04-27 18:02:00,68.0,47.0,-100.00,WSW,240,2.0,10.0,46,0.00,,,-99.99,,2013-04-27 23:02:00,
2013-04-27 18:11:00,68.0,47.0,-100.00,WSW,245,6.0,7.0,47,0.00,,,-99.99,,2013-04-27 23:11:00,
2013-04-27 18:22:00,67.0,47.0,-100.00,SW,220,4.0,7.0,48,0.00,,,-99.99,,2013-04-27 23:22:00,
2013-04-27 18:32:00,70.0,48.0,-100.00,South,170,0.0,6.0,45,0.00,,,-99.99,,2013-04-27 23:32:00,
2013-04-27 18:42:00,70.0,48.0,-100.00,South,170,0.0,6.0,45,0.00,,,-99.99,,2013-04-27 23:42:00,
2013-04-27 18:52:00,69.0,47.0,-100.00,SW,235,4.0,6.0,45,0.00,,,-99.99,,2013-04-27 23:52:00,
2013-04-27 19:01:00,69.0,47.0,-100.00,SW,235,4.0,6.0,45,0.00,,,-99.99,,2013-04-28 00:01:00,
2013-04-27 19:11:00,68.0,47.0,-100.00,West,260,2.0,6.0,46,0.00,,,-99.99,,2013-04-28 00:11:00,
2013-04-27 19:21:00,67.0,46.0,-100.00,SW,220,3.0,6.0,47,0.00,,,-99.99,,2013-04-28 00:21:00,
2013-04-27 19:32:00,66.0,45.0,-100.00,West,260,3.0,4.0,47,0.00,,,-99.99,,2013-04-28 00:32:00,
2013-04-27 19:42:00,66.0,45.0,-100.00,West,260,3.0,4.0,47,0.00,,,-99.99,,2013-04-28 00:42:00,
2013-04-27 19:52:00,64.0,45.0,-100.00,WSW,255,4.0,4.0,50,0.00,,,-99.99,,2013-04-28 00:52:00,
2013-04-27 20:01:00,64.0,45.0,-100.00,WSW,255,4.0,4.0,50,0.00,,,-99.99,,2013-04-28 01:01:00,
2013-04-27 20:11:00,63.0,45.0,-100.00,WSW,245,4.0,5.0,52,0.00,,,-99.99,,2013-04-28 01:11:00,
2013-04-27 20:21:00,62.0,45.0,-100.00,SW,230,3.0,4.0,53,0.00,,,-99.99,,2013-04-28 01:21:00,
2013-04-27 20:31:00,62.0,45.0,-100.00,SW,235,4.0,4.0,55,0.00,,,-99.99,,2013-04-28 01:31:00,
2013-04-27 20:42:00,62.0,45.0,-100.00,SW,235,4.0,4.0,55,0.00,,,-99.99,,2013-04-28 01:42:00,
2013-04-27 20:52:00,59.0,44.0,-100.00,SW,235,2.0,4.0,58,0.00,,,-99.99,,2013-04-28 01:52:00,
2013-04-27 21:02:00,59.0,44.0,-100.00,SW,235,2.0,4.0,58,0.00,,,-99.99,,2013-04-28 02:02:00,
2013-04-27 21:12:00,57.0,44.0,-100.00,SSE,160,2.0,3.0,62,0.07,,,-99.99,,2013-04-28 02:12:00,
2013-04-27 21:22:00,57.0,45.0,-100.00,SSW,200,2.0,2.0,65,0.00,,,-99.99,,2013-04-28 02:22:00,
2013-04-27 21:32:00,56.0,46.0,-100.00,SE,145,4.0,6.0,69,0.00,,,-99.99,,2013-04-28 02:32:00,
2013-04-27 21:42:00,56.0,46.0,-100.00,SE,145,4.0,6.0,69,0.00,,,-99.99,,2013-04-28 02:42:00,
2013-04-27 21:52:00,54.0,46.0,-100.00,South,175,2.0,3.0,72,0.00,,,-99.99,,2013-04-28 02:52:00,
2013-04-27 22:01:00,54.0,46.0,-100.00,South,175,2.0,3.0,72,0.00,,,-99.99,,2013-04-28 03:01:00,
2013-04-27 22:11:00,54.0,46.0,-100.00,South,175,3.0,4.0,73,0.00,,,-99.99,,2013-04-28 03:11:00,
2013-04-27 22:21:00,53.0,45.0,-100.00,ESE,115,4.0,8.0,74,0.00,,,-99.99,,2013-04-28 03:21:00,
2013-04-27 22:32:00,53.0,46.0,-100.00,South,175,7.0,9.0,76,0.00,,,-99.99,,2013-04-28 03:32:00,
2013-04-27 22:42:00,53.0,46.0,-100.00,South,175,7.0,9.0,76,0.00,,,-99.99,,2013-04-28 03:42:00,
2013-04-27 22:53:00,53.0,46.0,-100.00,South,170,7.0,9.0,77,0.00,,,-99.99,,2013-04-28 03:53:00,
2013-04-27 23:01:00,53.0,48.0,-100.00,SSE,165,10.0,14.0,82,0.00,,,-99.99,,2013-04-28 04:01:00,
2013-04-27 23:02:00,53.0,46.0,-100.00,SSE,165,9.0,12.0,78,0.00,,,-99.99,,2013-04-28 04:02:00,
2013-04-27 23:13:00,53.0,47.0,-100.00,SSE,165,10.0,14.0,81,0.00,,,-99.99,,2013-04-28 04:13:00,
2013-04-27 23:22:00,53.0,47.0,-100.00,SSE,165,10.0,14.0,81,0.00,,,-99.99,,2013-04-28 04:22:00,
2013-04-27 23:32:00,53.0,48.0,-100.00,SSE,165,10.0,14.0,82,0.00,,,-99.99,,2013-04-28 04:32:00,
2013-04-27 23:42:00,53.0,48.0,-100.00,SSE,165,10.0,14.0,82,0.00,,,-99.99,,2013-04-28 04:42:00,
2013-04-27 23:52:00,53.0,48.0,-100.00,SSE,165,10.0,14.0,82,0.00,,,-99.99,,2013-04-28 04:52:00,